Regional Weather Roundup
Issued by NWS

Home | Current Version | Previous Version | Text Only | Print | Product List | Glossary On
Versions: 1 2 3 4 5 6 7 8 9 10 11 12 13 14 15 16 17 18 19 20 21 22 23 24 25 26 27 28 29 30 31 32 33 34 35 36 37 38 39 40 41 42 43 44 45 46 47 48 49 50
000
ASUS45 KREV 310910
RWRNV
NEVADA REGIONAL WEATHER ROUNDUP
NATIONAL WEATHER SERVICE RENO NV
200 AM PDT FRI JUL 31 2015

NOTE: "FAIR" INDICATES FEW OR NO CLOUDS BELOW 12,000 FEET WITH NO
SIGNIFICANT WEATHER AND/OR OBSTRUCTIONS TO VISIBILITY.

NVZ001-003-004-311000-
WESTERN NEVADA

CITY           SKY/WX    TMP DP  RH WIND       PRES   REMARKS
RENO           PTCLDY    76  36  23 CALM      30.20S
CARSON CITY    FAIR      68  37  32 S3        30.22S
MINDEN         FAIR      63  39  42 CALM      30.23S
SLIDE MTN        N/A     63  34  34 NE15        N/A
PYRAMID LAKE     N/A     82 N/A N/A W5          N/A
FALLON         PTCLDY    73  37  27 CALM      30.14S
LOVELOCK       MOCLDY    66  27  23 SE5       30.14S
HAWTHORNE      CLEAR     73  43  33 CALM      30.17F
$$

NVZ002-CAZ072-073-311000-
NORTHERN AND CENTRAL SIERRA

CITY           SKY/WX    TMP DP  RH WIND       PRES   REMARKS
S. LAKE TAHOE  MOCLDY    59  43  55 CALM      30.36S
TRUCKEE        PTCLDY    54  43  66 CALM      30.34F
SQUAW VLY 8000   N/A     64  32  29 SW1         N/A
SUSANVILLE     CLEAR     66  37  34 S3        30.20R
BLUE CANYON    PTCLDY    74  39  28 CALM      30.29F
MAMMOTH LAKES  FAIR      63  41  45 W8        30.42F
BRIDGEPORT     FAIR      59  38  45 CALM      30.39F
$$

NVZ030-031-036-311000-
NORTHERN NEVADA

CITY           SKY/WX    TMP DP  RH WIND       PRES   REMARKS
ELKO           CLEAR     56  34  43 CALM      30.27F
WINNEMUCCA     PTCLDY    74  25  16 NE13      30.19F
WENDOVER       PTCLDY    70  25  18 NW6       30.22F
$$

NVZ035-037-311000-
CENTRAL NEVADA

CITY           SKY/WX    TMP DP  RH WIND       PRES   REMARKS
ELY            MOCLDY    57  24  28 S10       30.35S
EUREKA           N/A     56  18  22 CALM      30.32S
$$

NVZ013-014-311000-
SOUTH CENTRAL NEVADA

CITY           SKY/WX    TMP DP  RH WIND       PRES   REMARKS
TONOPAH        CLOUDY    74  32  21 N7        30.27S
$$

NVZ017-020-022-311000-
SOUTHERN NEVADA

CITY           SKY/WX    TMP DP  RH WIND       PRES   REMARKS
LAS VEGAS      CLOUDY    91  51  25 SE5       29.96R
N. LAS VEGAS   CLOUDY    90  51  26 S8        29.98S
NELLIS AFB     CLOUDY    92  53  26 SE3       29.96S
HENDERSON      CLOUDY    88  54  31 S6        30.03S
MERCURY        CLOUDY    84  52  33 SW14      30.10S
$$



USA.gov is the U.S. government's official web portal to all federal, state and local government web resources and services.